• In Netherlands
  • List of Countries
  • For 7 days
  • Water Temperature
  • Satellite Maps
  • Weather Map
  • Weather Widgets
  • user-avatar
    Login

    Hourly Weather Amar

    Today, 21 September, Thursday

    Time Temperature Precipitation Wind Pressure Humidity
    00:00 +35°C° 0 mm 2 mps 750 mmHg 65%
    01:00 +33°C° 0 mm 1 mps 750 mmHg 66%
    02:00 +33°C° 0 mm 1 mps 750 mmHg 67%
    03:00 +32°C° 0 mm 1 mps 749 mmHg 72%
    04:00 +33°C° 0 mm 1 mps 750 mmHg 72%
    05:00 +33°C° 0 mm 1 mps 750 mmHg 71%
    06:00 +33°C° 0 mm 1 mps 750 mmHg 71%
    07:00 +34°C° 0 mm 1 mps 750 mmHg 65%
    08:00 +35°C° 0 mm 1 mps 751 mmHg 59%
    09:00 +37°C° 0 mm 1 mps 751 mmHg 53%
    10:00 +39°C° 0 mm 1 mps 751 mmHg 47%
    11:00 +40°C° 0 mm 1 mps 750 mmHg 41%
    12:00 +41°C° 0 mm 1 mps 750 mmHg 35%
    13:00 +41°C° 0 mm 2 mps 750 mmHg 34%
    14:00 +42°C° 0 mm 3 mps 749 mmHg 33%
    15:00 +42°C° 0 mm 4 mps 749 mmHg 34%
    16:00 +41°C° 0 mm 4 mps 749 mmHg 41%
    17:00 +40°C° 0 mm 4 mps 749 mmHg 48%
    18:00 +37°C° 0 mm 5 mps 749 mmHg 55%
    19:00 +37°C° 0 mm 5 mps 749 mmHg 57%
    20:00 +37°C° 0 mm 4 mps 750 mmHg 58%
    21:00 +36°C° 0 mm 4 mps 750 mmHg 60%
    22:00 +36°C° 0 mm 4 mps 750 mmHg 59%
    23:00 +36°C° 0 mm 4 mps 750 mmHg 58%

    Tomorrow, 22 September, Friday

    Time Temperature Precipitation Wind Pressure Humidity
    00:00 +36°C° 0 mm 4 mps 749 mmHg 57%
    01:00 +35°C° 0 mm 3 mps 749 mmHg 56%
    02:00 +35°C° 0 mm 2 mps 749 mmHg 55%
    03:00 +34°C° 0 mm 2 mps 749 mmHg 54%
    04:00 +33°C° 0 mm 1 mps 750 mmHg 54%
    05:00 +32°C° 0 mm 1 mps 750 mmHg 53%
    06:00 +32°C° 0 mm 1 mps 750 mmHg 52%
    07:00 +34°C° 0 mm 1 mps 750 mmHg 48%
    08:00 +35°C° 0 mm 1 mps 751 mmHg 44%
    09:00 +37°C° 0 mm 1 mps 751 mmHg 40%
    10:00 +39°C° 0 mm 1 mps 751 mmHg 37%
    11:00 +40°C° 0 mm 2 mps 751 mmHg 33%
    12:00 +41°C° 0 mm 2 mps 751 mmHg 29%
    13:00 +41°C° 0 mm 2 mps 750 mmHg 27%
    14:00 +42°C° 0 mm 3 mps 750 mmHg 25%
    15:00 +43°C° 0 mm 4 mps 750 mmHg 23%
    16:00 +42°C° 0 mm 4 mps 750 mmHg 27%
    17:00 +40°C° 0 mm 4 mps 750 mmHg 31%
    18:00 +38°C° 0 mm 4 mps 750 mmHg 35%
    19:00 +37°C° 0 mm 4 mps 751 mmHg 39%
    20:00 +37°C° 0 mm 4 mps 751 mmHg 42%
    21:00 +36°C° 0 mm 4 mps 751 mmHg 45%
    22:00 +36°C° 0 mm 4 mps 751 mmHg 45%
    23:00 +35°C° 0 mm 3 mps 751 mmHg 44%

    Day after tomorrow, 23 September, Saturday

    Time Temperature Precipitation Wind Pressure Humidity
    00:00 +35°C° 0 mm 2 mps 751 mmHg 44%
    01:00 +34°C° 0 mm 2 mps 751 mmHg 44%
    02:00 +34°C° 0 mm 2 mps 751 mmHg 43%
    03:00 +32°C° 0 mm 2 mps 751 mmHg 43%
    04:00 +32°C° 0 mm 1 mps 751 mmHg 43%
    05:00 +32°C° 0 mm 1 mps 752 mmHg 43%
    06:00 +31°C° 0 mm 1 mps 752 mmHg 44%
    07:00 +33°C° 0 mm 1 mps 752 mmHg 40%
    08:00 +35°C° 0 mm 1 mps 753 mmHg 36%
    09:00 +35°C° 0 mm 0 mps 753 mmHg 32%
    10:00 +39°C° 0 mm 1 mps 753 mmHg 30%
    11:00 +40°C° 0 mm 1 mps 753 mmHg 27%
    12:00 +41°C° 0 mm 1 mps 752 mmHg 24%
    13:00 +41°C° 0 mm 2 mps 752 mmHg 23%
    14:00 +42°C° 0 mm 3 mps 752 mmHg 22%
    15:00 +42°C° 0 mm 3 mps 751 mmHg 21%
    16:00 +40°C° 0 mm 3 mps 751 mmHg 25%
    17:00 +39°C° 0 mm 3 mps 751 mmHg 29%
    18:00 +37°C° 0 mm 3 mps 751 mmHg 33%
    19:00 +37°C° 0 mm 3 mps 752 mmHg 37%
    20:00 +36°C° 0 mm 3 mps 752 mmHg 40%
    21:00 +35°C° 0 mm 3 mps 753 mmHg 44%
    22:00 +35°C° 0 mm 3 mps 753 mmHg 45%
    23:00 +35°C° 0 mm 2 mps 752 mmHg 46%

    24 September, Sunday

    Time Temperature Precipitation Wind Pressure Humidity
    00:00 +34°C° 0 mm 2 mps 752 mmHg 48%
    01:00 +32°C° 0 mm 1 mps 752 mmHg 48%
    02:00 +32°C° 0 mm 1 mps 752 mmHg 49%
    03:00 +31°C° 0 mm 1 mps 752 mmHg 49%
    04:00 +31°C° 0 mm 1 mps 752 mmHg 48%
    05:00 +31°C° 0 mm 1 mps 753 mmHg 47%
    06:00 +32°C° 0 mm 1 mps 753 mmHg 46%
    07:00 +33°C° 0 mm 1 mps 754 mmHg 42%
    08:00 +35°C° 0 mm 1 mps 754 mmHg 38%
    09:00 +37°C° 0 mm 1 mps 754 mmHg 33%
    10:00 +39°C° 0 mm 1 mps 754 mmHg 30%
    11:00 +39°C° 0 mm 1 mps 753 mmHg 28%
    12:00 +40°C° 0 mm 1 mps 753 mmHg 25%
    13:00 +41°C° 0 mm 1 mps 753 mmHg 24%
    14:00 +41°C° 0 mm 2 mps 752 mmHg 23%
    15:00 +42°C° 0 mm 3 mps 752 mmHg 22%
    16:00 +40°C° 0 mm 3 mps 752 mmHg 26%
    17:00 +39°C° 0 mm 3 mps 752 mmHg 29%
    18:00 +38°C° 0 mm 3 mps 752 mmHg 32%
    19:00 +37°C° 0 mm 3 mps 753 mmHg 36%
    20:00 +36°C° 0 mm 3 mps 753 mmHg 40%
    21:00 +36°C° 0 mm 3 mps 753 mmHg 44%
    22:00 +35°C° 0 mm 3 mps 753 mmHg 46%
    23:00 +35°C° 0 mm 3 mps 753 mmHg 48%

    25 September, Monday

    Time Temperature Precipitation Wind Pressure Humidity
    00:00 +34°C° 0 mm 2 mps 753 mmHg 50%
    01:00 +34°C° 0 mm 2 mps 752 mmHg 50%
    02:00 +32°C° 0 mm 2 mps 752 mmHg 50%
    03:00 +32°C° 0 mm 1 mps 752 mmHg 51%
    04:00 +31°C° 0 mm 1 mps 752 mmHg 51%
    05:00 +31°C° 0 mm 1 mps 753 mmHg 51%
    06:00 +31°C° 0 mm 1 mps 753 mmHg 50%
    07:00 +33°C° 0 mm 1 mps 753 mmHg 45%
    08:00 +35°C° 0 mm 1 mps 754 mmHg 40%
    09:00 +36°C° 0 mm 1 mps 754 mmHg 35%
    10:00 +37°C° 0 mm 1 mps 754 mmHg 33%
    11:00 +39°C° 0 mm 1 mps 753 mmHg 30%
    12:00 +40°C° 0 mm 1 mps 753 mmHg 27%
    13:00 +40°C° 0 mm 2 mps 752 mmHg 26%
    14:00 +40°C° 0 mm 3 mps 752 mmHg 26%
    15:00 +42°C° 0 mm 4 mps 752 mmHg 26%
    16:00 +40°C° 0 mm 4 mps 752 mmHg 30%
    17:00 +38°C° 0 mm 4 mps 752 mmHg 35%
    18:00 +37°C° 0 mm 3 mps 752 mmHg 40%
    19:00 +36°C° 0 mm 3 mps 752 mmHg 43%
    20:00 +36°C° 0 mm 3 mps 753 mmHg 46%
    21:00 +35°C° 0 mm 2 mps 753 mmHg 49%
    22:00 +34°C° 0 mm 2 mps 753 mmHg 51%
    23:00 +33°C° 0 mm 1 mps 752 mmHg 52%

    26 September, Tuesday

    Time Temperature Precipitation Wind Pressure Humidity
    00:00 +32°C° 0 mm 1 mps 752 mmHg 54%
    01:00 +31°C° 0 mm 1 mps 752 mmHg 54%
    02:00 +31°C° 0 mm 1 mps 751 mmHg 55%
    03:00 +30°C° 0 mm 1 mps 751 mmHg 55%
    04:00 +30°C° 0 mm 1 mps 752 mmHg 54%
    05:00 +30°C° 0 mm 1 mps 752 mmHg 53%
    06:00 +31°C° 0 mm 1 mps 752 mmHg 53%
    07:00 +32°C° 0 mm 2 mps 753 mmHg 47%
    08:00 +35°C° 0 mm 2 mps 753 mmHg 40%
    09:00 +37°C° 0 mm 3 mps 753 mmHg 34%
    10:00 +39°C° 0 mm 3 mps 753 mmHg 30%
    11:00 +40°C° 0 mm 3 mps 753 mmHg 26%
    12:00 +42°C° 0 mm 3 mps 752 mmHg 23%
    13:00 +42°C° 0 mm 3 mps 752 mmHg 23%
    14:00 +42°C° 0 mm 3 mps 752 mmHg 23%
    15:00 +42°C° 0 mm 4 mps 751 mmHg 24%
    16:00 +39°C° 0 mm 3 mps 752 mmHg 29%
    17:00 +38°C° 0 mm 3 mps 752 mmHg 34%
    18:00 +37°C° 0 mm 3 mps 752 mmHg 40%
    19:00 +36°C° 0 mm 3 mps 752 mmHg 43%
    20:00 +35°C° 0 mm 3 mps 753 mmHg 47%
    21:00 +35°C° 0 mm 2 mps 753 mmHg 50%
    22:00 +34°C° 0 mm 2 mps 753 mmHg 53%
    23:00 +33°C° 0 mm 1 mps 752 mmHg 55%
    Show more